Flag for Brazil Weather past 2 weeks in Fortaleza, Ceará, Brazil

Now
79 °F

Clear.


Feels Like: 81 °F
Forecast: N/A
Wind: 9 mph from East

Location: Fortaleza Aeropor-To

Current Time: Sep 4, 2015 at 8:56:19 PM

Latest Report: Sep 4, 2015 at 8:00 PM


Visibility: 10 mi

Pressure: 29.98 "Hg

Humidity: 74%

Dew point: 70 °F

Location of FortalezaLocation

Historic Weather in Fortaleza — Graph

°F

Fortaleza temperature yesterday

Maximum temperature yesterday: 84 °F (at 11:00 AM)
Minimum temperature yesterday: 77 °F (at 12:00 AM)
Average temperature yesterday: 79 °F

Past Weeks' High & Low Weather Summary

 TemperatureHumidityPressure
High86 °F (Aug 21, 12:00 PM)94% (Sep 2, 8:00 AM)30.07 "Hg (Sep 2, 8:00 AM)
Low73 °F (Aug 21, 4:00 AM)42% (Aug 22, 3:00 AM)29.80 "Hg (Aug 22, 3:00 PM)
Average80 °F67%29.94 "Hg
* Reported Aug 20 8:00 PM — Sep 4 8:00 PM, Fortaleza, Weather by CustomWeather, © 2015

Note: Actual official high and low records may vary slightly from our data, if they occured in-between our weather recording intervals... More about our weather records

Advertising

Fortaleza weather history for previous 24 hours

 ConditionsComfort  
Time TempWeatherWind HumidityBarometerVisibility
8:00 PM
Fri, Sep 4
79 °FClear.9 mph74%29.98 "Hg10 mi
7:00 PM79 °FPassing clouds.12 mph74%29.95 "HgN/A
6:00 PM79 °FClear.10 mph74%29.95 "Hg10 mi
5:00 PM81 °FSunny.14 mph70%29.92 "Hg10 mi
4:00 PM82 °FPassing clouds.15 mph62%29.92 "HgN/A
3:00 PM82 °FScattered clouds.21 mph62%29.92 "HgN/A
2:00 PM84 °FScattered clouds.17 mph58%29.92 "HgN/A
1:00 PM84 °FScattered clouds.18 mph58%29.95 "HgN/A
12:00 PM82 °FPartly sunny.18 mph62%29.98 "HgN/A
11:00 AM84 °FPartly sunny.18 mph58%30.01 "HgN/A
10:00 AM81 °FScattered clouds.20 mph66%30.01 "HgN/A
9:00 AM82 °FBroken clouds.21 mph62%30.04 "HgN/A
8:00 AM81 °FPartly sunny.17 mph66%30.01 "HgN/A
7:00 AM79 °FPartly sunny.13 mph74%30.01 "HgN/A
6:00 AM79 °FPartly sunny.12 mph70%29.98 "HgN/A
5:00 AM79 °FPassing clouds.13 mph74%29.95 "HgN/A
4:00 AM79 °FPassing clouds.14 mph70%29.95 "HgN/A
3:00 AM79 °FPassing clouds.14 mph70%29.95 "HgN/A
2:00 AM79 °FPassing clouds.10 mph74%29.95 "HgN/A
1:00 AM79 °FPassing clouds.12 mph74%29.95 "HgN/A
12:00 AM79 °FPassing clouds.20 mph74%29.98 "HgN/A
11:00 PM
Thu, Sep 3
77 °FPassing clouds.7 mph79%29.98 "HgN/A
10:00 PM79 °FPassing clouds.9 mph74%29.98 "HgN/A
9:00 PM79 °FPassing clouds.10 mph74%29.98 "HgN/A
8:00 PM79 °FPassing clouds.10 mph74%29.95 "HgN/A
Weather by CustomWeather, © 2015

See weather overviewHow to use our weather pages